Find Starlink 5757

NORAD ID: 55580 Int'l Des: 2023-020 Owner: SPXS Country: US Constellation: starlink operational
LEOCIRCULAR

リアルタイム位置

3D地球を読み込み中...

Starlink 5757について

説明を読み込み中...

次回通過

Passes for default location (London). Set your location on the main map for personalized predictions.

高度履歴

Loading altitude history...

軌道要素

1 55580U 23020M 26126.06494736 -.00000102 00000-0 58121-5 0 9992
2 55580 43.0035 15.5206 0000858 262.8130 97.2624 15.27575493177982
Epoch: May 6, 2026 • Age: 11 hours

現在のステータス

高度 484.4 km
速度 7.63 km/s
衛星直下点 31.51°N, 2.09°W
打ち上げ日 Feb 12, 2023
運用期間 3.2 years
タイプ internet

技術仕様

分類 Payload
質量 305.00 kg
乾燥質量 290.00 kg
総質量 305.00 kg
長さ 0.20 m
直径 2.80 m
スパン 9.00 m
形状 Box + pan
製造者 SPXS
バスタイプ Starlink
フェーズステータス In Orbit
所有者/国 SPXS/US

Most Searched